DW0835 Weather Reports


Display with metric or nautical units.
time (UTC)temp
F
wind
direction
speed
MPH
gust
MPH
rain 1hr
in
rain 24hr
in
rain mn
in
humidity
%
barometer
mb
20181216054507 30 37 0.0 0.0 0.00 0.01 0.01 92 1021.6
20181216053003 30 37 0.0 0.0 0.00 0.01 0.01 92 1021.6
20181216051504 30 37 0.0 0.0 0.00 0.01 0.01 92 1021.8
20181216050204 30 37 0.0 0.0 0.00 0.01 0.01 92 1021.8
20181216044703 30 37 0.0 0.0 0.00 0.01 0.01 92 1021.7
20181216043148 30 37 0.0 0.0 0.00 0.01 0.01 92 1021.7
20181216041642 30 37 0.0 0.0 0.00 0.01 0.01 92 1021.9
20181216040211 31 37 0.0 0.0 0.00 0.01 0.01 91 1022.1
20181216034623 31 37 0.0 0.0 0.00 0.01 0.01 91 1022.2
20181216033108 32 37 0.0 0.0 0.00 0.01 0.01 91 1022.0
20181216031651 32 37 0.0 0.0 0.00 0.01 0.01 91 1022.1
20181216030054 32 37 0.0 0.0 0.00 0.01 0.01 92 1022.1
20181216024652 33 37 0.0 0.0 0.00 0.01 0.01 91 1022.2
20181216023205 33 37 0.0 0.0 0.00 0.01 0.01 91 1022.4
20181216021601 34 37 0.0 0.0 0.00 0.01 0.01 91 1022.7
20181216020113 34 37 0.0 0.0 0.00 0.01 0.01 91 1022.8
20181216014549 35 37 0.0 0.0 0.00 0.01 0.01 90 1023.2
20181216013134 35 37 0.0 0.0 0.00 0.01 0.01 90 1023.2
20181216011619 36 37 0.0 0.0 0.00 0.01 0.01 91 1023.2
20181216010109 36 37 0.0 0.0 0.00 0.01 0.01 90 1023.3
20181216004606 36 14 0.0 1.0 0.00 0.01 0.01 91 1023.2
20181216003137 36 330 0.0 0.0 0.00 0.01 0.01 90 1023.1
20181216001600 36 360 0.0 2.0 0.00 0.01 0.01 90 1023.1
20181216000110 37 335 0.0 3.0 0.00 0.01 0.01 90 1023.2
20181215234558 37 343 0.0 3.0 0.00 0.01 0.01 89 1023.1
20181215233052 37 344 0.0 2.0 0.00 0.01 0.01 89 1023.2
20181215231633 37 344 0.0 2.0 0.00 0.01 0.01 87 1023.1
20181215230103 37 344 0.0 1.0 0.00 0.01 0.01 86 1023.1
20181215224538 37 344 0.0 3.0 0.00 0.01 0.01 86 1023.1
20181215223053 38 338 0.0 4.0 0.00 0.01 0.01 85 1023.2
20181215221551 38 346 0.0 2.0 0.00 0.01 0.01 85 1023.2
20181215220029 38 334 0.0 3.0 0.00 0.01 0.01 84 1022.8
20181215214536 39 349 0.0 1.0 0.00 0.01 0.01 83 1022.8
20181215213030 39 338 0.0 3.0 0.00 0.01 0.01 82 1022.8
20181215211612 40 22 0.0 2.0 0.00 0.01 0.01 81 1022.7
20181215210029 40 348 0.0 2.0 0.00 0.01 0.01 80 1022.7
20181215204545 40 338 0.0 3.0 0.00 0.01 0.01 82 1022.5
20181215203058 40 338 0.0 2.0 0.01 0.01 0.01 83 1022.5
20181215201557 40 134 0.0 2.0 0.01 0.01 0.01 83 1022.2
20181215200051 40 94 0.0 3.0 0.01 0.01 0.01 82 1022.4
20181215194541 40 97 0.0 1.0 0.01 0.01 0.01 82 1022.4
20181215193026 40 97 0.0 2.0 0.00 0.00 0.00 83 1022.5
20181215191528 40 100 0.0 3.0 0.00 0.00 0.00 83 1022.5
20181215190042 40 135 0.0 1.0 0.00 0.00 0.00 83 1022.7
20181215184551 40 115 0.0 2.0 0.00 0.00 0.00 84 1022.8
20181215183030 40 91 0.0 1.0 0.00 0.00 0.00 84 1023.0
20181215181544 40 355 0.0 2.0 0.00 0.00 0.00 84 1023.1
20181215180026 40 109 0.0 2.0 0.00 0.00 0.00 84 1023.2
20181215174546 40 62 0.0 1.0 0.00 0.00 0.00 84 1023.3
20181215173033 39 73 0.0 2.0 0.00 0.00 0.00 84 1023.5
20181215171522 39 40 0.0 1.0 0.00 0.00 0.00 84 1023.7
20181215170016 39 98 0.0 1.0 0.00 0.00 0.00 85 1023.8
20181215164512 39 148 0.0 2.0 0.00 0.00 0.00 86 1023.9
20181215163022 38 117 0.0 2.0 0.00 0.00 0.00 88 1024.1
20181215161520 38 36 0.0 3.0 0.00 0.00 0.00 89 1024.0
20181215160010 37 92 0.0 2.0 0.00 0.00 0.00 90 1024.0
20181215154503 36 355 0.0 0.0 0.00 0.00 0.00 90 1023.8
20181215153003 36 350 0.0 2.0 0.00 0.00 0.00 91 1023.5
20181215151712 34 350 0.0 2.0 0.00 0.00 0.00 92 1023.7
20181215150142 33 350 0.0 0.0 0.00 0.00 0.00 91 1023.8
20181215144756 33 350 0.0 0.0 0.00 0.00 0.00 91 1023.8
20181215143138 33 350 0.0 0.0 0.00 0.00 0.00 90 1023.9
20181215141700 34 350 0.0 0.0 0.00 0.00 0.00 91 1023.7
20181215140239 35 350 0.0 0.0 0.00 0.00 0.00 91 1023.7
20181215134626 35 350 0.0 0.0 0.00 0.00 0.00 91 1023.7
20181215133144 35 350 0.0 0.0 0.00 0.00 0.00 90 1023.7
20181215131643 35 350 0.0 0.0 0.00 0.00 0.00 90 1023.7
20181215130106 36 350 0.0 0.0 0.00 0.00 0.00 90 1023.6
20181215124659 36 350 0.0 0.0 0.00 0.00 0.00 90 1023.6
20181215123215 36 350 0.0 0.0 0.00 0.00 0.00 90 1023.5
20181215121645 36 350 0.0 0.0 0.00 0.00 0.00 89 1023.3
20181215120154 36 336 0.0 2.0 0.00 0.00 0.00 90 1023.2
20181215114623 36 317 0.0 2.0 0.00 0.00 0.00 90 1023.3
20181215113157 35 28 0.0 0.0 0.00 0.00 0.00 90 1023.2
20181215111646 35 28 0.0 0.0 0.00 0.00 0.00 89 1022.9
20181215110112 35 28 0.0 0.0 0.00 0.00 0.00 89 1022.7
20181215104616 35 28 0.0 0.0 0.00 0.00 0.00 89 1022.7
20181215103111 34 28 0.0 0.0 0.00 0.00 0.00 89 1022.7
20181215101638 34 28 0.0 0.0 0.00 0.00 0.00 89 1022.7
20181215100122 33 32 0.0 1.0 0.00 0.00 0.00 88 1022.9
20181215094555 32 360 0.0 1.0 0.00 0.00 0.00 87 1023.1
20181215093108 32 360 0.0 0.0 0.00 0.00 0.00 83 1023.1
20181215091541 33 360 0.0 0.0 0.00 0.00 0.00 82 1022.9
20181215090056 33 360 0.0 0.0 0.00 0.00 0.00 80 1022.8
20181215084540 33 360 0.0 0.0 0.00 0.00 0.00 77 1022.7
20181215083121 33 360 0.0 2.0 0.00 0.00 0.00 75 1022.4
20181215081559 33 360 0.0 3.0 0.00 0.00 0.00 77 1022.2
20181215080038 31 5 0.0 1.0 0.00 0.00 0.00 82 1022.1
20181215074527 29 309 0.0 1.0 0.00 0.00 0.00 88 1021.9
20181215073045 28 254 0.0 0.0 0.00 0.00 0.00 90 1021.8
20181215071531 27 254 0.0 0.0 0.00 0.00 0.00 90 1022.1
20181215070026 27 254 0.0 0.0 0.00 0.00 0.00 90 1022.5
20181215064552 27 254 0.0 0.0 0.00 0.00 0.00 90 1022.7
20181215063014 27 254 0.0 0.0 0.00 0.00 0.00 90 1023.2
20181215061530 27 254 0.0 0.0 0.00 0.00 0.00 90 1023.2
20181215060008 27 254 0.0 0.0 0.00 0.00 0.00 90 1023.3